Anaktuvuk Pass, AK

10:12 PM AKDT on August 18, 2017 (GMT -0800)
Anaktuvuk Pass

Weather History for PAKP - March, 2013

Change the Weather History Date:

Wednesday, March 6, 2013

  Actual Average Record
Temperature  
Mean Temperature 6 °F -  
Max Temperature 12 °F 0 °F 21 °F (2003)
Min Temperature 1 °F -12 °F -34 °F (2017)
Degree Days  
Heating Degree Days 58    
Moisture  
Dew Point -9 °F    
Average Humidity 49    
Maximum Humidity 100    
Minimum Humidity 23    
Precipitation  
Precipitation 0.00 in - - ()
Sea Level Pressure  
Sea Level Pressure 29.75 in    
Wind  
Wind Speed 13 mph (South)    
Max Wind Speed 22 mph    
Max Gust Speed 26 mph    
Visibility 10 miles    
Events      
Averages and records for this station are not official NWS values.
T = Trace of Precipitation, MM = Missing Value Source: NWS Daily Summary

Daily Weather History Graph

Daily Weather History Graph

Search for Another Location

Airport or City:

Trip Planner

Search our weather history database for the weather conditions in past years. The results will help you decide how hot, cold, wet, or windy it might be!

Date:

Astronomy

Mar. 06, 2013 Rise Set
Actual Time 8:03 AM AKST 6:34 PM AKST
Civil Twilight 7:07 AM AKST 7:30 PM AKST
Nautical Twilight 6:02 AM AKST 8:35 PM AKST
Astronomical Twilight 4:52 AM AKST 9:47 PM AKST
Moon 6:50 AM AKST (3/6) 11:01 AM AKST (3/6)
Length of Visible Light 12h 22m
Length of Day
10h 30m
Waning Crescent, 28% of the Moon is Illuminated
Mar 6
Waning Crescent
Mar 11
New
Mar 19
First Quarter
Mar 27
Full
Apr 2
Last Quarter

Hourly Weather History & Observations

Time (AKST) Temp. Windchill Dew Point Humidity Pressure Visibility Wind Dir Wind Speed Gust Speed Precip Events Conditions
12:16 AM 6.8 °F -4.8 °F -20.2 °F 28% 29.85 in 10.0 mi SSW 6.9 mph - N/A   Clear
12:36 AM 5.0 °F -5.6 °F -18.4 °F 33% 29.84 in 10.0 mi SSW 5.8 mph - N/A   Clear
12:56 AM 3.2 °F -9.1 °F -18.4 °F 36% 29.84 in 10.0 mi South 6.9 mph - N/A   Clear
1:16 AM 3.2 °F -7.8 °F -14.8 °F 43% 29.84 in 10.0 mi SSW 5.8 mph - N/A   Clear
1:36 AM 6.8 °F -7.8 °F -5.8 °F 56% 29.83 in 10.0 mi South 10.4 mph - N/A   Clear
1:56 AM 6.8 °F -10.0 °F -5.8 °F 56% 29.83 in 10.0 mi South 13.8 mph - N/A   Clear
2:16 AM 8.6 °F -7.0 °F -2.2 °F 62% 29.82 in 10.0 mi South 12.7 mph - N/A   Clear
2:36 AM 6.8 °F -10.7 °F -0.4 °F 72% 29.82 in 10.0 mi South 15.0 mph - N/A   Clear
2:56 AM 6.8 °F -8.6 °F -4.0 °F 61% 29.81 in 10.0 mi South 11.5 mph - N/A   Clear
3:16 AM 6.8 °F -6.9 °F -0.4 °F 72% 29.81 in 10.0 mi SSW 9.2 mph - N/A   Clear
3:36 AM 5.0 °F -6.9 °F -5.8 °F 61% 29.80 in 10.0 mi SW 6.9 mph - N/A   Clear
3:56 AM 3.2 °F -7.8 °F -7.6 °F 61% 29.80 in 10.0 mi SW 5.8 mph - N/A   Clear
4:16 AM 3.2 °F -10.3 °F -0.4 °F 85% 29.80 in 10.0 mi SSW 8.1 mph - N/A   Clear
4:36 AM 3.2 °F -11.3 °F -27.4 °F 23% 29.79 in 10.0 mi South 9.2 mph - N/A   Clear
4:56 AM 1.4 °F -12.5 °F -23.8 °F 30% 29.79 in 10.0 mi SSW 8.1 mph - N/A   Clear
5:16 AM 1.4 °F -14.5 °F -20.2 °F 36% 29.78 in 10.0 mi South 10.4 mph - N/A   Clear
5:36 AM 1.4 °F -14.5 °F -18.4 °F 39% 29.78 in 10.0 mi South 10.4 mph - N/A   Clear
5:56 AM 3.2 °F -13.1 °F -14.8 °F 43% 29.78 in 10.0 mi South 11.5 mph - N/A   Clear
6:16 AM 3.2 °F -12.2 °F -11.2 °F 51% 29.78 in 10.0 mi SSW 10.4 mph - N/A   Clear
6:36 AM 3.2 °F -12.2 °F -7.6 °F 61% 29.77 in 10.0 mi South 10.4 mph - N/A   Clear
6:56 AM 3.2 °F -13.1 °F -7.6 °F 61% 29.77 in 10.0 mi South 11.5 mph - N/A   Clear
7:16 AM 3.2 °F -13.1 °F -5.8 °F 66% 29.76 in 10.0 mi South 11.5 mph - N/A   Clear
7:36 AM 3.2 °F -14.6 °F -2.2 °F 78% 29.76 in 10.0 mi SSW 13.8 mph - N/A   Clear
7:56 AM 6.8 °F -11.3 °F -0.4 °F 72% 29.75 in 10.0 mi South 16.1 mph - N/A   Clear
8:16 AM 6.8 °F -11.3 °F -0.4 °F 72% 29.75 in 10.0 mi South 16.1 mph - N/A   Clear
8:36 AM 5.0 °F -14.2 °F -4.0 °F 66% 29.74 in 10.0 mi South 17.3 mph - N/A   Clear
8:56 AM 6.8 °F -10.0 °F -0.4 °F 72% 29.74 in 10.0 mi South 13.8 mph - N/A   Clear
9:16 AM 5.0 °F -10.8 °F -2.2 °F 72% 29.74 in 10.0 mi SSW 11.5 mph - N/A   Clear
9:36 AM 8.6 °F -9.5 °F 8.6 °F 100% 29.73 in 10.0 mi South 17.3 mph - N/A   Clear
9:56 AM 6.8 °F -11.8 °F -22.0 °F 26% 29.73 in 10.0 mi South 17.3 mph - N/A   Clear
10:16 AM 6.8 °F -10.7 °F -20.2 °F 28% 29.73 in 10.0 mi South 15.0 mph - N/A   Clear
10:36 AM 8.6 °F -10.0 °F -14.8 °F 34% 29.73 in 10.0 mi South 18.4 mph - N/A   Clear
10:56 AM 8.6 °F -10.5 °F -11.2 °F 40% 29.73 in 10.0 mi South 19.6 mph - N/A   Clear
11:16 AM 6.8 °F -11.8 °F -9.4 °F 48% 29.73 in 10.0 mi South 17.3 mph 21.9 mph N/A   Clear
11:36 AM 6.8 °F -11.8 °F -7.6 °F 52% 29.73 in 10.0 mi South 17.3 mph - N/A   Clear
11:56 AM 8.6 °F -10.0 °F -4.0 °F 57% 29.73 in 10.0 mi South 18.4 mph - N/A   Clear
12:16 PM 8.6 °F -10.0 °F -2.2 °F 62% 29.73 in 10.0 mi South 18.4 mph - N/A   Clear
12:36 PM 10.4 °F -5.4 °F -11.2 °F 37% 29.73 in 10.0 mi South 13.8 mph - N/A   Clear
12:56 PM 10.4 °F -8.6 °F -18.4 °F 26% 29.72 in 10.0 mi South 20.7 mph 24.2 mph N/A   Clear
1:16 PM 10.4 °F -8.2 °F -11.2 °F 37% 29.73 in 9.0 mi SSW 19.6 mph 24.2 mph N/A   Clear
1:36 PM 10.4 °F -6.6 °F -11.2 °F 37% 29.73 in 9.0 mi South 16.1 mph - N/A   Scattered Clouds
1:56 PM 10.4 °F -6.6 °F -7.6 °F 44% 29.72 in 10.0 mi South 16.1 mph - N/A   Mostly Cloudy
2:16 PM 10.4 °F -9.1 °F -2.2 °F 57% 29.72 in 9.0 mi South 21.9 mph 26.5 mph N/A   Partly Cloudy
2:36 PM 12.2 °F -4.8 °F 1.4 °F 62% 29.71 in 9.0 mi South 17.3 mph - N/A   Clear
2:56 PM 10.4 °F -7.2 °F -5.8 °F 48% 29.71 in 10.0 mi South 17.3 mph - N/A   Clear
3:16 PM 12.2 °F -5.8 °F -14.8 °F 29% 29.71 in 10.0 mi SSW 19.6 mph 23.0 mph N/A   Clear
3:36 PM 10.4 °F -7.7 °F -16.6 °F 29% 29.71 in 10.0 mi South 18.4 mph 23.0 mph N/A   Scattered Clouds
3:56 PM 10.4 °F -7.7 °F -13.0 °F 34% 29.71 in 10.0 mi SSW 18.4 mph 23.0 mph N/A   Overcast
4:16 PM 10.4 °F -8.2 °F -9.4 °F 41% 29.71 in 10.0 mi SSW 19.6 mph 25.3 mph N/A   Overcast
4:36 PM 10.4 °F -8.6 °F -7.6 °F 44% 29.71 in 10.0 mi SSW 20.7 mph - N/A   Mostly Cloudy
4:56 PM 10.4 °F -8.6 °F -5.8 °F 48% 29.71 in 10.0 mi South 20.7 mph - N/A   Mostly Cloudy
5:16 PM 10.4 °F -7.2 °F -0.4 °F 62% 29.71 in 10.0 mi South 17.3 mph - N/A   Overcast
5:36 PM 10.4 °F -7.2 °F 3.2 °F 73% 29.71 in 10.0 mi South 17.3 mph - N/A   Overcast
5:56 PM 10.4 °F -8.2 °F -2.2 °F 57% 29.70 in 10.0 mi SSE 19.6 mph 24.2 mph N/A   Overcast
6:16 PM 10.4 °F -8.6 °F -16.6 °F 29% 29.70 in 10.0 mi SSE 20.7 mph 26.5 mph N/A   Mostly Cloudy
6:36 PM 10.4 °F -6.0 °F -16.6 °F 29% 29.70 in 8.0 mi South 15.0 mph 26.5 mph N/A   Overcast
6:56 PM 10.4 °F -5.4 °F -14.8 °F 31% 29.71 in 10.0 mi SSW 13.8 mph - N/A   Overcast
7:16 PM 8.6 °F -8.3 °F -11.2 °F 40% 29.71 in 10.0 mi South 15.0 mph - N/A   Overcast
7:36 PM 10.4 °F -8.2 °F -7.6 °F 44% 29.71 in 5.0 mi SSE 19.6 mph - N/A   Overcast
7:56 PM 8.6 °F -10.5 °F -2.2 °F 62% 29.70 in 5.0 mi SSE 19.6 mph 25.3 mph N/A   Overcast
8:16 PM 10.4 °F -7.2 °F 1.4 °F 67% 29.72 in 9.0 mi South 17.3 mph - N/A   Overcast
8:36 PM 10.4 °F -9.1 °F -14.8 °F 31% 29.71 in 3.0 mi SW 21.9 mph 26.5 mph N/A   Overcast
8:56 PM 10.4 °F -6.0 °F -16.6 °F 29% 29.72 in 5.0 mi SSW 15.0 mph 24.2 mph N/A   Mostly Cloudy
9:16 PM 8.6 °F -10.0 °F -11.2 °F 40% 29.71 in 10.0 mi South 18.4 mph - N/A   Overcast
9:36 PM 10.4 °F -7.2 °F -5.8 °F 48% 29.72 in 10.0 mi SSW 17.3 mph 21.9 mph N/A   Overcast
9:56 PM 8.6 °F -9.5 °F -5.8 °F 52% 29.71 in 10.0 mi South 17.3 mph - N/A   Overcast
10:16 PM 8.6 °F -7.7 °F -2.2 °F 62% 29.71 in 10.0 mi South 13.8 mph - N/A   Scattered Clouds
10:36 PM 8.6 °F -9.5 °F -0.4 °F 67% 29.72 in 10.0 mi SSW 17.3 mph 20.7 mph N/A   Partly Cloudy
10:56 PM 8.6 °F -10.0 °F -18.4 °F 28% 29.71 in 10.0 mi South 18.4 mph 23.0 mph N/A   Clear
11:16 PM 6.8 °F -7.8 °F -18.4 °F 31% 29.72 in 10.0 mi South 10.4 mph - N/A   Clear
11:36 PM 8.6 °F -10.0 °F -14.8 °F 34% 29.71 in 10.0 mi South 18.4 mph - N/A   Partly Cloudy
11:56 PM 8.6 °F -7.7 °F -7.6 °F 48% 29.71 in 10.0 mi South 13.8 mph - N/A   Clear